Location: Bratsk-Energetik
(56.3300°N, 101.7600°E)
Time: 23:16:16
(UTC+08:00)

ISS - Pass Details

Date: 12 May 2021
Orbit: 417 x 422 km, 51.6° (Epoch: 12 June)

Event Time Altitude Azimuth Distance (km) Brightness Sun altitude
Exits shadow 04:11:41 - 270° (W) 2,377 -0.3 -6.3°
Rises 04:11:41 0° 270° (W) 2,374 -0.3 -6.3°
Reaches altitude 10° 04:13:59 10° 257° (WSW) 1,508 -1.4 -6.1°
Maximum altitude 04:16:52 26° 199° (SSW) 868 -2.7 -5.8°
Drops below altitude 10° 04:19:45 10° 140° (SE) 1,506 -1.0 -5.6°
Sets 04:22:03 0° 128° (SE) 2,369 0.2 -5.3°
